CAPE
15 6 11 54 63 69 34 23 33 77 111 147 128 88 10 0 0 0 0 0 0 0 0 0 0 0 0 0 0 0 0 0
0 0 0 2 24 32 62 52 59 101 120 93 63 3 0 0 0 0 0 0 0 0 0 22 13 14 0 1 7 5 12 29
3 0 0 9 18 38 43 100 120 128 86 66 5 0 0 0 0 0 0 0 0 0 13 17 14 20 7 17 13 23 36 30
1 0 0 19 71 39 13 94 75 26 0 0 0 0 0 0 0 0 0 0 0 11 13 4 0 5 11 19 47 39 30 16
0 0 0 0 2 10 8 0 0 0 0 0 0 0 0 0 0 0 0 0 0 0 0 0 0 0 1 31 31 25 9 2
0 0 0 0 2 0 0 0 0 0 0 0 0 0 0 0 0 0 0 0 0 0 0 0 0 0 0 2 17 3 1 0
0 0 0 0 0 0 0 0 0 0 0 0 0 0 0 0 0 0 0 0 0 0 0 0 0 3 0 0 0 0 0 0
0 0 0 0 0 0 0 0 0 0 0 0 0 0 0 0 0 0 0 0 0 0 0 1 1 0 0 0 0 0 0 0
0 0 0 0 0 0 0 0 0 0 0 0 0 0 0 0 0 0 0 0 0 0 0 0 0 0 0 0 0 0 0 0
0 0 0 0 0 0 0 0 0 0 0 0 0 0 0 0 0 0 0 0 0 0 0 0 0 0 0 1 0 0 0 0
0 0 0 0 0 0 0 0 0 0 0 0 0 0 0 0 0 0 0 0 0 0 0 0 0 0 0 0 0 0 0 0
0 0 0 0 0 0 0 0 0 0 0 0 0 0 0 0 0 0 0 0 0 0 0 0 0 0 2 0 0 0 0 0
0 0 0 0 0 0 0 0 0 0 0 0 0 0 0 0 0 0 8 0 0 0 0 0 0 0 0 0 0 0 0 0
0 0 0 0 0 0 0 0 0 0 0 0 0 0 0 0 0 0 0 0 0 0 0 0 0 0 0 0 0 0 0 0
19 7 16 0 0 0 0 0 0 0 0 0 0 0 0 17 20 0 0 0 0 0 0 0 0 0 0 0 0 0 0 0
97 37 15 12 0 0 0 0 0 0 0 0 0 33 97 63 27 3 0 0 0 0 0 0 0 0 0 0 0 0 0 0
159 40 33 69 8 2 2 0 0 7 0 0 1 45 85 66 19 0 0 0 0 0 0 0 0 0 0 0 0 0 0 0
158 20 27 75 27 22 42 32 25 111 64 36 54 109 83 68 40 1 0 0 0 0 0 0 0 0 0 0 0 0 0 0
126 29 5 17 11 23 58 67 73 140 146 123 86 109 82 35 3 0 0 0 0 0 0 0 0 0 0 0 0 0 0 0
98 35 25 40 28 6 35 46 70 125 146 132 122 89 92 6 0 0 0 0 0 0 0 0 0 0 0 0 0 0 0 0
CIN
-131 -44 -44 -69 -41 -43 -85 -60 -31 -20 -16 -18 -59 -58 -108 -31 0 0 0 0 0 0 0 0 0 0 0 0 0 0 0 0
0 0 0 -119 -77 -43 -57 -58 -22 -7 -28 -45 -44 -65 0 0 0 0 0 0 0 0 -4 -80 -104 -90 -6 -31 -88 -72 -48 -31
-0 -0 0 -109 -104 -45 -39 -33 -13 -8 -15 -35 -62 0 0 0 0 0 0 0 0 0 -84 -106 -138 -139 -137 -96 -73 -48 -47 -44
-2 0 0 -92 -42 -67 -103 -14 -15 -44 0 0 0 0 0 0 0 0 0 0 0 -82 -96 -125 0 -106 -87 -72 -53 -52 -43 -40
0 0 0 -1 -22 -177 -147 -20 -15 0 0 0 0 0 0 0 0 0 0 0 0 0 0 0 0 0 -17 -78 -65 -63 -61 0
0 0 0 0 0 -2 0 0 0 0 0 0 0 0 0 0 0 0 0 0 0 0 0 0 0 0 0 -21 -86 -21 0 0
0 0 0 0 0 0 0 0 0 0 0 0 0 0 0 0 0 0 0 0 0 0 0 0 -87 -200 0 0 0 0 0 0
0 0 0 0 0 0 0 0 0 0 0 0 0 0 0 0 0 0 0 0 0 0 0 -82 -183 0 0 0 0 0 0 0
0 0 0 0 0 0 0 0 0 0 0 0 0 0 0 0 0 0 0 0 0 0 0 0 0 0 0 0 0 0 0 0
0 0 0 0 0 0 0 0 0 0 0 0 0 0 0 0 0 0 0 0 0 0 0 0 0 0 0 0 0 0 0 0
0 0 0 0 0 0 0 0 0 0 0 0 0 0 0 0 0 0 0 0 0 0 0 0 0 0 0 0 0 0 0 0
0 0 0 0 0 0 0 0 0 0 0 0 0 0 0 0 0 0 0 0 0 0 0 0 0 0 0 0 0 0 0 0
0 0 0 0 0 0 0 0 0 0 0 0 0 0 0 0 0 0 -138 0 0 0 0 0 0 0 0 0 0 0 0 0
-152 0 0 0 0 0 0 0 0 0 0 0 0 0 0 0 0 0 0 0 0 0 0 0 0 0 0 0 0 0 0 0
-525 -595 -594 0 0 0 0 0 0 0 0 0 0 0 0 -259 -249 -29 0 0 0 0 0 0 0 0 0 0 0 0 0 0
-458 -521 -538 -578 0 0 0 0 0 0 0 0 0 -293 -195 -243 -256 -138 0 0 0 0 0 0 0 0 0 0 0 0 0 0
-465 -522 -491 -462 -580 -349 -195 0 -4 -333 -22 0 -75 -247 -198 -236 -290 -50 0 0 0 0 0 0 0 0 0 0 0 0 0 0
-414 -473 -456 -423 -524 -459 -361 -387 -396 -246 -270 -266 -253 -199 -191 -214 -266 -166 0 0 0 0 0 0 0 0 0 0 0 0 0 0
-414 -466 -302 -401 -480 -466 -390 -395 -355 -253 -245 -223 -212 -187 -201 -229 -109 0 0 0 0 0 0 0 0 0 0 0 0 0 0 0
-453 -484 -456 -438 -438 -444 -405 -371 -345 -291 -252 -225 -230 -232 -200 -252 0 0 0 0 0 0 0 0 0 0 0 0 0 0 0 0
Wind_Speed
12 13 18 18 15 15 17 18 16 19 14 10 15 17 19 6 8 6 6 7 8 7 3 2 1 27 25 19 19 20 18 19
12 11 17 17 14 14 15 17 13 15 18 8 9 10 23 10 13 11 7 6 6 4 4 9 6 11 21 18 18 17 19 19
14 14 17 15 13 10 11 14 13 13 14 24 22 13 10 8 9 7 6 6 5 7 10 10 12 15 17 19 18 17 15 16
16 17 17 15 14 11 8 8 9 8 11 12 16 16 9 6 5 5 6 6 4 12 12 9 7 10 14 14 14 14 14 16
18 17 17 16 14 13 8 8 9 10 11 12 12 9 7 6 9 7 4 3 3 8 3 5 10 11 11 12 14 13 14 15
19 17 17 15 11 10 10 10 11 11 17 13 11 10 10 10 6 6 5 5 5 5 6 8 10 9 10 11 12 13 15 16
21 18 18 16 13 10 11 14 13 12 13 14 14 11 22 22 16 6 3 6 8 8 11 10 8 9 9 11 13 15 16 16
21 20 19 19 16 16 16 14 13 14 14 15 32 38 39 13 7 11 8 9 10 10 9 8 7 10 10 12 14 14 14 15
21 22 19 21 21 18 14 14 14 14 20 43 42 40 34 19 11 5 9 8 10 7 6 7 9 10 11 13 14 13 14 15
20 21 20 21 20 18 13 14 17 38 41 42 39 33 24 15 13 4 4 6 5 6 8 9 11 12 12 12 12 13 14 14
20 20 22 20 16 15 15 24 34 36 29 39 35 32 23 19 11 4 5 4 3 6 5 8 10 10 11 11 12 12 13 13
20 18 19 19 16 17 18 24 30 32 15 17 16 10 11 8 8 5 4 5 6 2 4 4 7 9 10 11 12 12 12 11
20 21 20 19 19 18 18 19 20 25 25 17 13 12 11 10 7 6 5 9 11 6 2 5 5 7 10 12 12 12 10 10
21 21 21 20 18 17 18 18 19 17 17 14 15 13 12 10 8 8 8 7 7 7 6 1 3 7 7 10 9 11 10 9
21 23 22 21 19 22 22 21 23 23 19 16 15 13 12 11 10 11 10 10 10 8 6 3 3 3 6 9 11 10 11 11
23 22 23 22 20 21 22 21 21 19 17 17 15 13 12 12 12 13 12 10 10 9 7 5 2 4 3 11 13 10 12 13
26 24 23 23 23 22 21 23 23 22 20 18 17 15 14 13 13 13 12 11 11 10 9 7 5 3 3 9 10 13 12 14
26 28 26 27 25 25 23 21 20 20 19 20 17 16 15 15 15 14 14 12 12 11 10 9 7 7 6 7 8 10 11 13
31 28 28 27 29 27 27 23 21 21 20 21 20 19 18 17 15 15 15 14 13 12 11 10 9 9 8 8 10 10 12 12
33 32 29 29 28 26 26 29 25 24 22 22 21 22 20 19 18 17 17 16 14 13 12 12 12 11 11 11 12 12 13 11
Wind_Direction
101 103 110 110 111 114 120 120 118 117 117 126 109 105 102 120 174 135 141 111 104 97 132 88 303 143 119 87 84 79 67 65
112 110 114 113 114 117 119 121 122 119 116 143 134 119 112 180 182 182 164 147 119 122 88 63 29 220 105 90 86 76 71 57
126 123 122 118 117 125 125 124 126 123 115 118 115 158 182 170 180 164 141 128 110 87 80 66 53 56 78 87 82 74 54 48
139 135 130 127 122 127 147 173 185 175 128 125 119 118 131 159 164 118 114 169 121 85 76 62 47 54 63 68 65 55 40 45
147 143 138 135 133 132 152 182 182 147 142 135 133 156 167 171 200 196 165 160 104 80 57 47 60 58 55 57 59 43 38 36
151 150 146 142 145 147 154 166 162 153 135 140 152 165 192 200 182 203 198 210 89 74 61 60 62 49 51 44 43 44 45 46
155 156 154 150 149 159 158 147 157 167 153 151 147 158 135 206 211 209 124 94 90 81 80 70 57 52 43 44 46 51 53 50
157 159 159 155 155 154 154 155 167 164 194 154 152 188 177 211 149 116 108 100 97 88 82 60 46 58 52 53 53 53 49 46
162 161 162 160 157 157 168 167 166 167 151 182 179 179 156 135 130 148 115 104 103 85 64 51 64 57 60 58 60 54 50 51
167 163 165 164 162 162 181 194 207 203 194 180 170 159 146 139 135 187 134 111 106 101 83 67 74 77 69 59 55 52 57 54
171 169 167 169 178 176 195 218 213 209 214 172 167 162 151 146 146 181 138 123 129 118 72 80 81 65 58 55 53 55 62 56
176 178 174 174 197 210 214 219 220 220 185 167 164 200 174 186 222 218 174 160 137 145 98 46 69 62 46 45 45 56 54 54
185 177 177 179 181 186 194 188 215 226 230 222 188 195 189 189 218 215 194 161 155 149 121 99 37 59 50 40 21 23 41 45
185 189 182 184 193 199 214 204 216 211 224 206 187 192 199 205 214 203 187 179 175 163 154 112 358 103 34 29 26 12 18 27
194 189 190 190 210 220 223 224 228 229 227 206 197 202 205 205 200 193 189 188 179 180 176 182 141 124 116 7 3 5 7 1
205 196 198 199 202 212 214 209 220 225 218 217 215 212 207 201 199 192 190 204 206 202 194 204 206 178 162 334 344 3 356 354
207 203 206 201 207 207 214 223 231 235 234 228 227 224 218 212 207 209 211 213 218 211 207 210 218 237 250 322 335 342 350 350
220 218 215 221 212 212 205 207 221 225 224 227 227 223 225 217 212 211 214 220 220 222 218 220 233 268 270 295 312 326 330 338
227 222 220 216 224 221 222 220 220 223 229 232 234 236 239 231 221 221 226 230 232 236 234 237 243 251 264 270 296 306 327 329
226 225 224 222 219 219 223 233 231 233 233 237 237 239 242 239 236 239 241 242 244 243 246 251 256 265 271 282 289 296 309 315